Weather in Kasur

Pakistan     31°07′00″N   74°27′27″E
temp.,
°C
wind,
m/s
gust,
m/s
humid.,
%
clouds,
%
prec.,
mm/h
press.,
hPa
HPBL,
m
18 january, tue
tue1823:00+10ene115296 0.0 102110
02:00+9ne11586 0.0 102110
05:00+8n22615 0.0 102010
08:00+9nw11583 0.0 102019
11:00+17nw34400 0.0 1020503
14:00+21nw46350 0.0 10161109
17:00+16n22550 0.0 101411
20:00+13nw11625 0.0 101710
19 january, wed
wed1923:00+11e116787 0.0 101710
02:00+11nne0068100 0.0 101710
05:00+11ssw116892 0.0 101510
08:00+13sse0066100 0.0 101610
11:00+18ssw2246100 0.0 1016440
14:00+15nnw1160100 0.1 101412
17:00+14ne366695 0.1 1013152
20:00+13e3567100 0.0 1015111
20 january, thu
thu2023:00+11ene3591100 0.0 1015101
02:00
05:00+9ne229071 0.0 101223
08:00+11n238515 0.0 101476
11:00
14:00+20n21465 0.0 10111663
17:00+16nne33612 0.0 101036
20:00+13nne33700 0.0 101224
21 january, fri
fri2123:00+11ne22800 0.0 101320
02:00+9ne12880 0.0 101210
05:00+9ene11890 0.0 101210
08:00+11ne11830 0.0 101420
11:00+18ene11540 0.0 1014572
14:00+20ene11410 0.0 10111820
17:00+16nne22530 0.0 101011
20:00+12ene33679 0.0 101234
22 january, sat
sat2223:00+11e337899 0.0 101244
02:00+11ene4674100 0.0 1010112
05:00+12e397486 0.1 1008224
08:00+12n2282100 0.7 100932
11:00+16se3661100 0.8 1009766
14:00+13ne3690100 3.0 1007277
17:00+13ene71394100 10.3 1005740
20:00+12e61494100 4.1 1006679